Minot AFB, ND

3:58 AM CDT on October 17, 2019 (GMT -0500)
Minot Air Force Base

Weather History for KMIB - August, 2019

Change the Weather History Date:

Wednesday, August 21, 2019

  Actual Average Record
Temperature  
Mean Temperature 60 °F -  
Max Temperature 77 °F 80 °F 93 °F (2012)
Min Temperature 43 °F 53 °F 41 °F (2004)
Degree Days  
Heating Degree Days 5    
Growing Degree Days 10 (Base 50)    
Moisture  
Dew Point 44 °F    
Average Humidity 62    
Maximum Humidity 91    
Minimum Humidity 29    
Precipitation  
Precipitation 0.00 in - - ()
Sea Level Pressure  
Sea Level Pressure 30.14 in    
Wind  
Wind Speed 5 mph ()    
Max Wind Speed 8 mph    
Max Gust Speed -    
Visibility 10.0 miles    
Events      
Averages and records for this station are not official NWS values.
T = Trace of Precipitation, MM = Missing Value Source: Averaged Metar Reports

Daily Weather History Graph

Daily Weather History Graph

Search for Another Location

Airport or City:

Astronomy

Aug. 21, 2019 Rise Set
Actual Time 6:47 AM CDT 8:48 PM CDT
Civil Twilight 6:13 AM CDT 9:22 PM CDT
Nautical Twilight 5:31 AM CDT 10:04 PM CDT
Astronomical Twilight 4:44 AM CDT 10:50 PM CDT
Moon 11:39 PM CDT (8/21) 12:51 PM CDT (8/21)
Length of Visible Light 15h 08m
Length of Day
14h 01m
Waning Gibbous, 69% of the Moon is Illuminated
Aug 21
Waning Gibbous
Aug 23
Last Quarter
Aug 30
New
Sep 5
First Quarter
Sep 13
Full

Hourly Weather History & Observations

Time (CDT) Temp. Windchill Dew Point Humidity Pressure Visibility Wind Dir Wind Speed Gust Speed Precip Events Conditions
12:56 AM 48.6 °F - 44.8 °F 87% 30.19 in 10.0 mi West 6.9 mph - N/A   Clear
1:56 AM 47.5 °F - 43.9 °F 87% 30.19 in 10.0 mi WNW 6.9 mph - N/A   Clear
2:00 AM 48.2 °F - 44.6 °F 87% 30.16 in 10.0 mi West 6.9 mph - N/A   Clear
2:56 AM 44.8 °F 41.0 °F 41.7 °F 89% 30.18 in 10.0 mi WNW 6.9 mph - N/A   Clear
3:56 AM 45.1 °F 40.8 °F 42.1 °F 89% 30.17 in 10.0 mi NW 8.1 mph - N/A   Clear
4:56 AM 43.5 °F 40.1 °F 41.0 °F 91% 30.15 in 10.0 mi NW 5.8 mph - N/A   Clear
5:56 AM 45.1 °F 41.4 °F 42.6 °F 91% 30.15 in 10.0 mi NNW 6.9 mph - N/A   Clear
6:56 AM 45.1 °F 43.7 °F 42.1 °F 89% 30.17 in 10.0 mi NW 3.5 mph - N/A   Clear
7:56 AM 48.6 °F - 45.1 °F 88% 30.19 in 10.0 mi WSW 3.5 mph - N/A   Clear
8:56 AM 55.8 °F - 47.7 °F 74% 30.27 in 10.0 mi Calm Calm - N/A   Clear
9:56 AM 60.4 °F - 46.4 °F 60% 30.19 in 10.0 mi Calm Calm - N/A   Clear
10:56 AM 64.9 °F - 45.3 °F 49% 30.19 in 10.0 mi Calm Calm - N/A   Clear
12:56 PM 70.5 °F - 45.0 °F 40% 30.19 in 10.0 mi Calm Calm - N/A   Clear
1:56 PM 73.2 °F - 43.2 °F 34% 30.15 in 10.0 mi Calm Calm - N/A   Clear
2:56 PM 75.4 °F - 41.7 °F 30% 30.13 in 10.0 mi WNW 6.9 mph - N/A   Clear
3:56 PM 76.1 °F - 42.4 °F 30% 30.10 in 10.0 mi NNW 4.6 mph - N/A   Clear
4:56 PM 77.0 °F - 43.2 °F 30% 30.09 in 10.0 mi NNW 6.9 mph - N/A   Clear
5:56 PM 77.2 °F - 42.4 °F 29% 30.07 in 10.0 mi NNE 6.9 mph - N/A   Clear
6:56 PM 75.9 °F - 44.8 °F 33% 30.06 in 10.0 mi NE 4.6 mph - N/A   Clear
7:56 PM 72.5 °F - 46.0 °F 39% 30.05 in 10.0 mi ENE 8.1 mph - N/A   Clear
8:56 PM 62.1 °F - 47.1 °F 58% 30.06 in 10.0 mi ESE 4.6 mph - N/A   Clear
9:56 PM 58.3 °F - 45.3 °F 62% 30.07 in 10.0 mi East 4.6 mph - N/A   Clear
10:56 PM 56.8 °F - 43.9 °F 62% 30.07 in 10.0 mi East 4.6 mph - N/A   Clear
11:56 PM 53.6 °F - 44.6 °F 72% 30.08 in 10.0 mi ESE 4.6 mph - N/A   Clear